Weather History for Istanbul, Turkey

Change the Weather History Date:

Sunday, August 11, 2013

  Actual Average Record
Temperature  
Mean Temperature 80 °F -  
Max Temperature 84 °F 79 °F 91 °F (1999)
Min Temperature 75 °F 66 °F 62 °F (2011)
Cooling Degree Days 14    
Growing Degree Days 30 (Base 50)    
Moisture  
Dew Point 64 °F    
Average Humidity 58    
Maximum Humidity 74    
Minimum Humidity 38    
Precipitation  
Precipitation 0.00 in - - ()
Sea Level Pressure  
Sea Level Pressure 29.78 in    
Wind  
Wind Speed 12 mph ()    
Max Wind Speed 23 mph    
Max Gust Speed 32 mph    
Visibility 6.2 miles    
Events      
Averages and records for this station are not official NWS values.
T = Trace of Precipitation, MM = Missing Value Source: Averaged Metar Reports

Daily Weather History Graph

Daily Weather History Graph

Search for Another Location

Airport:

Trip Planner

Search our weather history database for the weather conditions in past years. The results will help you decide how hot, cold, wet, or windy it might be!

Date:

Astronomy

Aug. 11, 2013 Rise Set
Actual Time 6:10 AM EEST 8:08 PM EEST
Civil Twilight 5:40 AM EEST 8:38 PM EEST
Nautical Twilight 5:04 AM EEST 9:14 PM EEST
Astronomical Twilight 4:24 AM EEST 9:54 PM EEST
Moon 10:40 AM EEST (8/11) 10:09 PM EEST (8/11)
Length of Visible Light 14h 57m
Length of Day
13h 58m
Waxing Crescent, 19% of the Moon is Illuminated
Aug 11
Waxing Crescent
Aug 14
First Quarter
Aug 21
Full
Aug 28
Last Quarter
Sep 5
New

Hourly Weather History & Observations

Time (EEST) Temp. Heat Index Dew Point Humidity Pressure Visibility Wind Dir Wind Speed Gust Speed Precip Events Conditions
12:20 AM 77.0 °F - 66.2 °F 69% 29.74 in - NE 10.4 mph - N/A   Clear
12:50 AM 77.0 °F - 66.2 °F 69% 29.74 in - NE 9.2 mph - N/A   Clear
1:20 AM 78.8 °F - 66.2 °F 65% 29.74 in - ENE 9.2 mph - N/A   Clear
1:50 AM 77.0 °F - 66.2 °F 69% 29.74 in - NE 8.1 mph - N/A   Clear
2:20 AM 77.0 °F - 66.2 °F 69% 29.74 in - NE 8.1 mph - N/A   Clear
2:50 AM 75.2 °F - 66.2 °F 73% 29.74 in - NNE 6.9 mph - N/A   Clear
3:20 AM 75.2 °F - 66.2 °F 73% 29.74 in - NNE 8.1 mph - N/A   Clear
3:50 AM 75.2 °F - 66.2 °F 73% 29.74 in - NNE 8.1 mph - N/A   Clear
4:20 AM 75.2 °F - 66.2 °F 73% 29.74 in - NNE 6.9 mph - N/A   Clear
4:50 AM 75.2 °F - 66.2 °F 73% 29.74 in - NNE 8.1 mph - N/A   Clear
5:20 AM 77.0 °F - 66.2 °F 69% 29.74 in - NNE 10.4 mph - N/A   Clear
5:50 AM 77.0 °F - 66.2 °F 69% 29.74 in - NNE 9.2 mph - N/A   Clear
6:20 AM 77.0 °F - 66.2 °F 69% 29.74 in - NNE 11.5 mph - N/A   Clear
6:50 AM 77.0 °F - 64.4 °F 65% 29.74 in - NNE 11.5 mph - N/A   Clear
7:20 AM 78.8 °F - 64.4 °F 61% 29.74 in - NNE 11.5 mph - N/A   Clear
7:50 AM 78.8 °F - 64.4 °F 61% 29.74 in 6.2 mi NNE 13.8 mph - N/A   Partly Cloudy
8:20 AM 80.6 °F 82.3 °F 64.4 °F 58% 29.77 in 6.2 mi NNE 15.0 mph - N/A   Partly Cloudy
8:50 AM 80.6 °F 81.8 °F 62.6 °F 54% 29.74 in 6.2 mi NE 16.1 mph 28.8 mph N/A   Partly Cloudy
9:00 AM 80 °F - 63 °F 46% 29.76 in 6 mi NE 16.1 mph - -   Scattered Clouds
9:20 AM 80.6 °F 81.8 °F 62.6 °F 54% 29.74 in 6.2 mi NE 15.0 mph - N/A   Scattered Clouds
9:50 AM 82.4 °F 82.9 °F 60.8 °F 48% 29.77 in 6.2 mi NE 17.3 mph 28.8 mph N/A   Scattered Clouds
10:20 AM 84.2 °F 83.5 °F 57.2 °F 40% 29.77 in 6.2 mi NE 17.3 mph - N/A   Scattered Clouds
10:50 AM 84.2 °F 83.8 °F 59.0 °F 42% 29.77 in 6.2 mi NE 17.3 mph - N/A   Scattered Clouds
11:20 AM 84.2 °F 83.8 °F 59.0 °F 42% 29.77 in 6.2 mi NE 16.1 mph - N/A   Scattered Clouds
11:50 AM 82.4 °F 83.4 °F 62.6 °F 51% 29.77 in 6.2 mi North 19.6 mph - N/A   Scattered Clouds
12:20 PM 82.4 °F 83.4 °F 62.6 °F 51% 29.77 in 6.2 mi NNE 17.3 mph - N/A   Scattered Clouds
12:50 PM 82.4 °F 83.4 °F 62.6 °F 51% 29.77 in 6.2 mi NE 15.0 mph - N/A   Scattered Clouds
1:20 PM 84.2 °F 85.6 °F 64.4 °F 51% 29.77 in 6.2 mi NNE 17.3 mph - N/A   Scattered Clouds
1:50 PM 84.2 °F 85.6 °F 64.4 °F 51% 29.77 in 6.2 mi NNE 18.4 mph - N/A   Scattered Clouds
2:20 PM 84.2 °F 85.6 °F 64.4 °F 51% 29.77 in 6.2 mi North 23.0 mph - N/A   Scattered Clouds
2:50 PM 84.2 °F 85.6 °F 64.4 °F 51% 29.80 in 6.2 mi North 19.6 mph - N/A   Scattered Clouds
3:00 PM 84 °F - 62 °F 38% 29.79 in 6 mi North 19.6 mph - -   Partly Cloudy
3:20 PM 84.2 °F 85.0 °F 62.6 °F 48% 29.80 in 6.2 mi North 20.7 mph - N/A   Scattered Clouds
3:50 PM 84.2 °F 85.0 °F 62.6 °F 48% 29.80 in 6.2 mi North 20.7 mph 32.2 mph N/A   Scattered Clouds
4:20 PM 84.2 °F 84.4 °F 60.8 °F 45% 29.80 in 6.2 mi North 23.0 mph - N/A   Scattered Clouds
4:50 PM 82.4 °F 82.9 °F 60.8 °F 48% 29.80 in 6.2 mi NNE 21.9 mph - N/A   Scattered Clouds
5:20 PM 84.2 °F 83.8 °F 59.0 °F 42% 29.80 in 6.2 mi NNE 18.4 mph - N/A   Scattered Clouds
5:50 PM 82.4 °F 82.9 °F 60.8 °F 48% 29.80 in 6.2 mi NNE 18.4 mph - N/A   Scattered Clouds
6:20 PM 82.4 °F 82.9 °F 60.8 °F 48% 29.80 in 6.2 mi NNE 18.4 mph - N/A   Partly Cloudy
6:50 PM 80.6 °F 81.8 °F 62.6 °F 54% 29.80 in 6.2 mi North 17.3 mph - N/A   Partly Cloudy
7:20 PM 82.4 °F 83.4 °F 62.6 °F 51% 29.80 in 6.2 mi NNE 15.0 mph - N/A   Partly Cloudy
7:50 PM 80.6 °F 82.3 °F 64.4 °F 58% 29.80 in 6.2 mi NNE 15.0 mph - N/A   Partly Cloudy
8:20 PM 80.6 °F 82.3 °F 64.4 °F 58% 29.80 in 6.2 mi NNE 11.5 mph - N/A   Partly Cloudy
8:50 PM 80.6 °F 82.7 °F 66.2 °F 61% 29.83 in - NE 10.4 mph - N/A   Clear
9:20 PM 78.8 °F - 66.2 °F 65% 29.83 in - NNE 10.4 mph - N/A   Clear
9:50 PM 78.8 °F - 68.0 °F 69% 29.83 in - NNE 10.4 mph - N/A   Clear
10:20 PM 78.8 °F - 68.0 °F 69% 29.83 in - NNE 9.2 mph - N/A   Clear
10:50 PM 77.0 °F - 68.0 °F 74% 29.86 in - NNE 8.1 mph - N/A   Clear
11:20 PM 77.0 °F - 68.0 °F 74% 29.86 in - NE 8.1 mph - N/A   Clear
11:50 PM 77.0 °F - 68.0 °F 74% 29.86 in - NNE 8.1 mph - N/A   Clear